This is the latest recevied weather packets stored in our database for station/object KI4HRG. If no packets are shown the sender has not sent any weather packets the latest 10 day(s).
| Time | Temp. | Humidity | Pressure | Rain* | Wind** | Luminosity | Snow |
|---|---|---|---|---|---|---|---|
| 1777797224 | 8.33° C | 91% | 1019.6 hPa | 0 mm | - | 0 W/m² | - |
| 1777796920 | 8.33° C | 90% | 1019.9 hPa | 0 mm | - | 0 W/m² | - |
| 1777796618 | 8.33° C | 89% | 1019.8 hPa | 0 mm | - | 0 W/m² | - |
| 1777796313 | 8.33° C | 89% | 1019.7 hPa | 0 mm | - | 0 W/m² | - |
| 1777796009 | 8.89° C | 88% | 1019.6 hPa | 0 mm | - | 0 W/m² | - |
| 1777795706 | 8.89° C | 88% | 1019.6 hPa | 0 mm | - | 0 W/m² | - |
| 1777795403 | 8.89° C | 88% | 1019.4 hPa | 0 mm | - | 0 W/m² | - |
| 1777795099 | 8.89° C | 87% | 1019.6 hPa | 0 mm | - | 0 W/m² | - |
| 1777794795 | 8.89° C | 86% | 1019.5 hPa | 0 mm | - | 0 W/m² | - |
| 1777794492 | 8.89° C | 85% | 1019.2 hPa | 0 mm | - | 0 W/m² | - |
| 1777794187 | 9.44° C | 84% | 1019.3 hPa | 0 mm | - | 0 W/m² | - |
| 1777793884 | 9.44° C | 83% | 1019.3 hPa | 0 mm | - | 0 W/m² | - |
| 1777793581 | 10° C | 82% | 1019.3 hPa | 0 mm | - | 0 W/m² | - |
| 1777793279 | 10° C | 81% | 1019.2 hPa | 0 mm | - | 0 W/m² | - |
| 1777792976 | 10° C | 79% | 1019.1 hPa | 0 mm | - | 0 W/m² | - |
| 1777792672 | 10° C | 79% | 1019.2 hPa | 0 mm | - | 0 W/m² | - |
| 1777792370 | 10.56° C | 79% | 1019 hPa | 0 mm | - | 0 W/m² | - |
| 1777792066 | 10.56° C | 79% | 1019 hPa | 0 mm | - | 0 W/m² | - |
| 1777791764 | 11.67° C | 77% | 1019 hPa | 0 mm | - | 0 W/m² | - |
| 1777791462 | 12.22° C | 71% | 1019 hPa | 0 mm | - | 0 W/m² | - |
| 1777791159 | 12.22° C | 67% | 1018.9 hPa | 0 mm | - | 0 W/m² | - |
| 1777790856 | 12.22° C | 67% | 1018.9 hPa | 0 mm | - | 0 W/m² | - |
| 1777790553 | 12.78° C | 67% | 1019 hPa | 0 mm | - | 0 W/m² | - |
| 1777790250 | 12.22° C | 67% | 1018.9 hPa | 0 mm | - | 0 W/m² | - |
| 1777789944 | 12.22° C | 68% | 1018.7 hPa | 0 mm | - | 0 W/m² | - |
* Rain latest hour (hover to see other rain measurements)
** Current wind speed in m/s (hover to see current wind gust speed)